星链-30371 (STARLINK-30371 )

导读

STARLINK-30371是美国SpaceX公司星链(Starlink)星座的一员,于北京时间2023年9月1日8时发射入轨。作为低轨互联网通信卫星,它运行在约550公里近地轨道,以约7.6km/s高速飞行,为全球偏远地区提供低延迟、高速宽带互联网服务,助力实现星链“全球全域联网”的建设目标。

Basic Information
目录编号:
57735
目录名称:
STARLINK-30371
国际标识:
2023-131D
轨道中心:
EARTH
卫星名称:
星链-30371
卫星全名:
星链-30371 (STARLINK-30371 )
卫星状态:
在轨 (已飞行1106 天)
发射日期:
2023-09-01 UTC
国别 :
美国 (US)
星等 :
--
This satellite is enrolled in the Space Conjunction Data Service (SCDS) and the current flight risk assessment level is: High Risk
Orbit Information
数据来源 国际轨道数据 AOE轨道数据
星历时间 2026-09-11T13:23:12+0800
9小时前
查看轨道信息
2026-09-11T00:00:00+0800
22小时前
查看轨道信息
半长轴 6861.205km 6861.19km
偏心率 0.0001556 0.0001771
轨道倾角 43.003° 43.002°
近地点辐角 274.157° 283.984°
升交点赤经 212.139° 215.295°
平近点角 85.911° 245.149°
近地点 482km 481.837km
远地点 484.136km 484.269km
周期 94.267分钟 94.267分钟
每日圈数 15.27574 15.275787
Detailed Information
固有亮度:
5
最大亮度:
0.3
卫星平台:
Starlink v2.0 mini
覆盖范围:
全球
运营商:
太空探索技术公司
运营商所在国:
美国
制造商(研发单位):
太空探索技术公司
制造商所在国:
美国
使用方式:
暂无
Satellite Introduction
星链(Starlink)计划是由太空探索技术公司(SpaceX)提出的一个巨型低轨卫星互联网星座项目,计划在2019年至2024年间在太空搭建由约1.2万颗卫星组成的“星链”网络,其中1584颗将部署在地球上空550千米处的近地轨道,并从2020年开始工作。该卫星仍在工作。
2D Orbit Map
3D Orbit Map
Orbit Altitude Analysis Chart
Orbit Inclination Analysis Chart
Orbit Comprehensive Analysis Chart
View Comprehensive Chart
Conjunction Data List
Event ID Objects TCA Miss Dist (km) Collision Risk Probability Collision Risk Index (CRI) Action
CDM_260912-033705-773506-341521
2026-09-12T
03:37:28+0000
0.241 km
中距离
4.776649E-4 高风险 0.89
CDM_260912-134905-773506-341521
2026-09-12T
13:49:28+0000
0.425 km
远距离
1.788662E-4 高风险 0.8
CDM_260913-023505-773506-742521
2026-09-13T
02:35:56+0000
0.406 km
远距离
1.769726E-4 高风险 0.8
CDM_260912-192205-773506-764121
2026-09-12T
19:22:35+0000
0.412 km
远距离
1.415912E-4 高风险 0.78
CDM_260912-081205-773506-799121
2026-09-12T
08:12:13+0000
0.681 km
远距离
6.899174E-5 中风险 0.72
CDM_260913-124705-773506-742521
2026-09-13T
12:47:56+0000
0.729 km
远距离
3.65787E-5 中风险 0.66
CDM_260913-215705-773506-284621
2026-09-13T
21:57:32+0000
0.952 km
远距离
1.977249E-5 中风险 0.61
CDM_260912-231705-773506-764121
2026-09-12T
23:17:58+0000
0.828 km
远距离
1.914198E-5 中风险 0.61
CDM_260911-224305-773506-697522
2026-09-11T
22:43:08+0000
1.168 km
极远距离
1.214336E-5 中风险 0.57
CDM_260912-035505-711605-773522
2026-09-12T
03:55:48+0000
1.129 km
极远距离
1.159332E-5 中风险 0.56
Miss Distance Evolution Trend with All Objects
Collision Probability Evolution Trend with All Objects